When you browse on this site, cookies collect data to enhance your experience and personalize the content and advertising you see.
Visit our Privacy Policy to learn more. By continuing to use the site, you agree to this use of cookies and data.
  • Em Portugal
  • Lista de países
  • Para 7 dias
  • Temperatura da água
  • Mapas de satélite
  • Mapa do tempo
  • Widgets de tempo
  • user-avatar
    Iniciar Sessão

    Previsão horária em Ruse

    Hoje, 18 Junho, Terça-feira

    Tempo Temperatura Precipitação Vento Pressão Humidade
    00:00 +23°C° 0.4 mm 1 m/s 755 mmHg 79%
    01:00 +22°C° 0.4 mm 1 m/s 755 mmHg 82%
    02:00 +20°C° 0.4 mm 0 m/s 755 mmHg 86%
    03:00 +19°C° 0 mm 0 m/s 755 mmHg 86%
    04:00 +19°C° 0 mm 0 m/s 755 mmHg 87%
    05:00 +19°C° 0 mm 0 m/s 755 mmHg 87%
    06:00 +20°C° 0 mm 0 m/s 755 mmHg 80%
    07:00 +24°C° 0 mm 1 m/s 755 mmHg 73%
    08:00 +26°C° 0 mm 1 m/s 756 mmHg 66%
    09:00 +27°C° 0 mm 1 m/s 756 mmHg 60%
    10:00 +29°C° 0 mm 2 m/s 756 mmHg 54%
    11:00 +31°C° 0 mm 2 m/s 756 mmHg 48%
    12:00 +31°C° 0.1 mm 2 m/s 755 mmHg 49%
    13:00 +31°C° 0.1 mm 3 m/s 755 mmHg 50%
    14:00 +31°C° 0.1 mm 3 m/s 755 mmHg 51%
    15:00 +31°C° 0.2 mm 3 m/s 754 mmHg 52%
    16:00 +31°C° 0.2 mm 3 m/s 754 mmHg 53%
    17:00 +30°C° 0.2 mm 3 m/s 754 mmHg 54%
    18:00 +29°C° 0.2 mm 2 m/s 754 mmHg 60%
    19:00 +27°C° 0.2 mm 2 m/s 754 mmHg 66%
    20:00 +26°C° 0.2 mm 1 m/s 754 mmHg 71%
    21:00 +25°C° 0.3 mm 1 m/s 754 mmHg 75%
    22:00 +24°C° 0.3 mm 1 m/s 755 mmHg 80%
    23:00 +23°C° 0.3 mm 1 m/s 755 mmHg 84%

    Amanhã, 19 Junho, Quarta-feira

    Tempo Temperatura Precipitação Vento Pressão Humidade
    00:00 +22°C° 0 mm 1 m/s 755 mmHg 85%
    01:00 +22°C° 0 mm 1 m/s 755 mmHg 86%
    02:00 +21°C° 0 mm 1 m/s 755 mmHg 87%
    03:00 +21°C° 0 mm 1 m/s 755 mmHg 87%
    04:00 +20°C° 0 mm 1 m/s 754 mmHg 87%
    05:00 +20°C° 0 mm 1 m/s 754 mmHg 87%
    06:00 +22°C° 0 mm 1 m/s 755 mmHg 78%
    07:00 +23°C° 0 mm 2 m/s 755 mmHg 70%
    08:00 +25°C° 0 mm 2 m/s 755 mmHg 62%
    09:00 +27°C° 0 mm 2 m/s 755 mmHg 55%
    10:00 +28°C° 0 mm 3 m/s 755 mmHg 49%
    11:00 +30°C° 0 mm 3 m/s 755 mmHg 42%
    12:00 +30°C° 0 mm 3 m/s 754 mmHg 41%
    13:00 +31°C° 0 mm 3 m/s 754 mmHg 39%
    14:00 +33°C° 0 mm 4 m/s 754 mmHg 37%
    15:00 +33°C° 0 mm 3 m/s 753 mmHg 39%
    16:00 +31°C° 0 mm 3 m/s 753 mmHg 41%
    17:00 +31°C° 0 mm 3 m/s 753 mmHg 43%
    18:00 +29°C° 0 mm 3 m/s 753 mmHg 50%
    19:00 +27°C° 0 mm 2 m/s 753 mmHg 57%
    20:00 +25°C° 0 mm 2 m/s 753 mmHg 64%
    21:00 +24°C° 0 mm 2 m/s 753 mmHg 68%
    22:00 +23°C° 0 mm 1 m/s 754 mmHg 72%
    23:00 +22°C° 0 mm 1 m/s 754 mmHg 77%

    Depois de amanhã, 20 Junho, Quinta-feira

    Tempo Temperatura Precipitação Vento Pressão Humidade
    00:00 +22°C° 0.1 mm 1 m/s 754 mmHg 79%
    01:00 +20°C° 0.1 mm 0 m/s 753 mmHg 81%
    02:00 +19°C° 0.1 mm 0 m/s 753 mmHg 83%
    03:00 +19°C° 0 mm 0 m/s 753 mmHg 84%
    04:00 +19°C° 0 mm 0 m/s 753 mmHg 85%
    05:00 +18°C° 0 mm 0 m/s 753 mmHg 86%
    06:00 +20°C° 0 mm 0 m/s 753 mmHg 81%
    07:00 +22°C° 0 mm 0 m/s 753 mmHg 75%
    08:00 +26°C° 0 mm 1 m/s 753 mmHg 70%
    09:00 +27°C° 0 mm 1 m/s 753 mmHg 63%
    10:00 +29°C° 0 mm 1 m/s 753 mmHg 56%
    11:00 +31°C° 0 mm 1 m/s 753 mmHg 49%
    12:00 +31°C° 0 mm 2 m/s 753 mmHg 48%
    13:00 +31°C° 0 mm 2 m/s 753 mmHg 48%
    14:00 +31°C° 0 mm 3 m/s 753 mmHg 47%
    15:00 +31°C° 0 mm 2 m/s 753 mmHg 47%
    16:00 +31°C° 0 mm 2 m/s 752 mmHg 47%
    17:00 +31°C° 0 mm 2 m/s 752 mmHg 47%
    18:00 +29°C° 0.3 mm 2 m/s 752 mmHg 57%
    19:00 +27°C° 0.3 mm 2 m/s 753 mmHg 67%
    20:00 +24°C° 0.3 mm 3 m/s 753 mmHg 77%
    21:00 +23°C° 0.3 mm 2 m/s 753 mmHg 77%
    22:00 +23°C° 0.3 mm 1 m/s 753 mmHg 77%
    23:00 +22°C° 0.3 mm 1 m/s 754 mmHg 78%

    21 Junho, Sexta-feira

    Tempo Temperatura Precipitação Vento Pressão Humidade
    00:00 +20°C° 0.1 mm 0 m/s 754 mmHg 79%
    01:00 +20°C° 0.1 mm 0 m/s 754 mmHg 79%
    02:00 +19°C° 0.1 mm 0 m/s 754 mmHg 80%
    03:00 +19°C° 0.2 mm 0 m/s 754 mmHg 81%
    04:00 +19°C° 0.2 mm 0 m/s 754 mmHg 82%
    05:00 +19°C° 0.2 mm 0 m/s 754 mmHg 83%
    06:00 +20°C° 0 mm 0 m/s 754 mmHg 79%
    07:00 +22°C° 0 mm 0 m/s 754 mmHg 74%
    08:00 +24°C° 0 mm 0 m/s 755 mmHg 70%
    09:00 +26°C° 0 mm 0 m/s 755 mmHg 64%
    10:00 +27°C° 0 mm 0 m/s 755 mmHg 58%
    11:00 +31°C° 0 mm 1 m/s 754 mmHg 52%
    12:00 +32°C° 0 mm 1 m/s 754 mmHg 48%
    13:00 +32°C° 0 mm 2 m/s 754 mmHg 45%
    14:00 +34°C° 0 mm 2 m/s 754 mmHg 41%
    15:00 +34°C° 0 mm 2 m/s 754 mmHg 42%
    16:00 +34°C° 0 mm 2 m/s 753 mmHg 43%
    17:00 +32°C° 0 mm 2 m/s 753 mmHg 44%
    18:00 +30°C° 0 mm 2 m/s 753 mmHg 50%
    19:00 +29°C° 0 mm 2 m/s 754 mmHg 56%
    20:00 +27°C° 0 mm 1 m/s 754 mmHg 62%
    21:00 +26°C° 0 mm 1 m/s 754 mmHg 64%
    22:00 +25°C° 0 mm 1 m/s 754 mmHg 66%
    23:00 +24°C° 0 mm 1 m/s 755 mmHg 68%

    22 Junho, Sábado

    Tempo Temperatura Precipitação Vento Pressão Humidade
    00:00 +24°C° 0 mm 1 m/s 755 mmHg 70%
    01:00 +23°C° 0 mm 1 m/s 755 mmHg 72%
    02:00 +23°C° 0 mm 1 m/s 755 mmHg 74%
    03:00 +23°C° 0 mm 1 m/s 755 mmHg 76%
    04:00 +22°C° 0 mm 1 m/s 755 mmHg 77%
    05:00 +22°C° 0 mm 1 m/s 754 mmHg 79%
    06:00 +24°C° 0.2 mm 1 m/s 755 mmHg 75%
    07:00 +25°C° 0.2 mm 1 m/s 755 mmHg 70%
    08:00 +27°C° 0.2 mm 1 m/s 755 mmHg 66%
    09:00 +29°C° 0.1 mm 1 m/s 755 mmHg 61%
    10:00 +30°C° 0.1 mm 1 m/s 755 mmHg 56%
    11:00 +32°C° 0.1 mm 1 m/s 755 mmHg 51%
    12:00 +33°C° 0.1 mm 1 m/s 755 mmHg 47%
    13:00 +33°C° 0.1 mm 1 m/s 755 mmHg 44%
    14:00 +34°C° 0.1 mm 1 m/s 755 mmHg 41%
    15:00 +34°C° 0 mm 1 m/s 755 mmHg 43%
    16:00 +33°C° 0 mm 1 m/s 754 mmHg 44%
    17:00 +33°C° 0 mm 1 m/s 754 mmHg 46%
    18:00 +31°C° 0 mm 1 m/s 754 mmHg 51%
    19:00 +30°C° 0 mm 1 m/s 755 mmHg 56%
    20:00 +28°C° 0 mm 1 m/s 755 mmHg 61%
    21:00 +27°C° 0.3 mm 1 m/s 755 mmHg 66%
    22:00 +26°C° 0.3 mm 1 m/s 755 mmHg 70%
    23:00 +25°C° 0.3 mm 1 m/s 756 mmHg 74%

    23 Junho, Domingo

    Tempo Temperatura Precipitação Vento Pressão Humidade
    00:00 +24°C° 0.3 mm 1 m/s 756 mmHg 76%
    01:00 +24°C° 0.3 mm 1 m/s 756 mmHg 78%
    02:00 +23°C° 0.3 mm 1 m/s 755 mmHg 80%
    03:00 +23°C° 0 mm 1 m/s 755 mmHg 81%
    04:00 +23°C° 0 mm 1 m/s 755 mmHg 81%
    05:00 +23°C° 0 mm 1 m/s 755 mmHg 82%
    06:00 +24°C° 0 mm 1 m/s 755 mmHg 76%
    07:00 +26°C° 0 mm 1 m/s 756 mmHg 70%
    08:00 +28°C° 0 mm 1 m/s 756 mmHg 64%
    09:00 +30°C° 0 mm 1 m/s 756 mmHg 58%
    10:00 +31°C° 0 mm 1 m/s 756 mmHg 53%
    11:00 +34°C° 0 mm 2 m/s 756 mmHg 47%
    12:00 +34°C° 0 mm 1 m/s 756 mmHg 43%
    13:00 +34°C° 0 mm 1 m/s 755 mmHg 40%
    14:00 +35°C° 0 mm 1 m/s 755 mmHg 36%
    15:00 +36°C° 0 mm 2 m/s 755 mmHg 38%
    16:00 +35°C° 0 mm 2 m/s 755 mmHg 40%
    17:00 +35°C° 0 mm 2 m/s 755 mmHg 41%
    18:00 +32°C° 0 mm 1 m/s 755 mmHg 45%
    19:00 +30°C° 0 mm 1 m/s 755 mmHg 49%
    20:00 +27°C° 0 mm 0 m/s 755 mmHg 53%
    21:00 +28°C° 0 mm 1 m/s 755 mmHg 56%
    22:00 +27°C° 0 mm 1 m/s 756 mmHg 59%
    23:00 +26°C° 0 mm 1 m/s 756 mmHg 62%
    Mostrar mais